Flag for Poland Weather past 2 weeks in Szczecin, Poland

Now
50 °F

Clear.


Feels Like: 49 °F
Forecast: 52 / 69 °F
Wind: 3 mph from Southeast

Location: Szczecin Airport

Current Time: Aug 29, 2014 at 1:53:39 AM

Latest Report: Aug 29, 2014 at 1:30 AM


Visibility: 10 mi

Pressure: 30.01 "Hg

Humidity: 94%

Dew point: 48 °F

Location of SzczecinLocation

Historic Weather in Szczecin — Graph

°F

Szczecin temperature yesterday

Maximum temperature yesterday: 72 °F (at 2:30 PM)
Minimum temperature yesterday: 45 °F (at 6:30 AM)
Average temperature yesterday: 59 °F

Past Weeks' High & Low Weather Summary

 TemperatureHumidityPressure
High72 °F (Aug 14, 4:00 PM)100% (Aug 14, 3:30 AM)30.04 "Hg (Aug 14, 3:30 AM)
Low41 °F (Aug 26, 6:30 AM)35% (Aug 26, 4:00 PM)29.53 "Hg (Aug 18, 6:00 PM)
Average58 °F73%29.84 "Hg
* Reported Midnight between Aug 13 and Aug 14 — Aug 29 12:30 AM, Szczecin, Weather by CustomWeather, © 2014

Note: Actual official high and low records may vary slightly from our data, if they occured in-between our weather recording intervals... More about our weather records

Advertising

Szczecin weather history for previous 24 hours

 ConditionsComfort  
Time TempWeatherWind HumidityBarometerVisibility
12:30 AM
Aug 29
52 °FClear.3 mph88%30.04 "Hg10 mi
12:00 AM52 °FClear.No wind88%30.04 "Hg10 mi
11:30 PM
Aug 28
54 °FClear.No wind82%30.04 "Hg10 mi
11:00 PM55 °FClear.No wind77%30.04 "Hg10 mi
10:30 PM57 °FClear.5 mph77%30.04 "Hg10 mi
10:00 PM57 °FClear.5 mph77%30.04 "Hg10 mi
9:30 PM57 °FClear.3 mph72%30.04 "Hg10 mi
9:00 PM59 °FSunny.5 mph68%30.01 "Hg10 mi
8:30 PM59 °FSunny.No wind63%30.01 "Hg10 mi
8:00 PM63 °FSunny.No wind59%30.01 "Hg10 mi
7:30 PM68 °FSunny.3 mph46%30.01 "Hg10 mi
7:00 PM70 °FSunny.5 mph40%30.01 "Hg10 mi
6:30 PM70 °FPassing clouds.6 mph40%30.01 "HgN/A
6:00 PM72 °FPassing clouds.7 mph36%30.01 "HgN/A
5:30 PM70 °FPassing clouds.6 mph43%30.01 "HgN/A
5:00 PM72 °FPassing clouds.8 mph41%30.01 "HgN/A
4:30 PM72 °FPassing clouds.8 mph41%30.01 "HgN/A
4:00 PM72 °FScattered clouds.12 mph41%30.01 "HgN/A
3:30 PM72 °FScattered clouds.7 mph41%30.01 "HgN/A
3:00 PM70 °FScattered clouds.12 mph46%30.04 "HgN/A
2:30 PM72 °FScattered clouds.9 mph47%30.01 "HgN/A
1:30 PM70 °FScattered clouds.10 mph46%30.04 "HgN/A
1:00 PM70 °FScattered clouds.15 mph50%30.04 "HgN/A
12:30 PM68 °FScattered clouds.9 mph53%30.04 "HgN/A
12:00 PM66 °FPassing clouds.13 mph56%30.04 "HgN/A
11:30 AM66 °FPassing clouds.10 mph60%30.04 "HgN/A
11:00 AM66 °FSunny.10 mph56%30.04 "Hg10 mi
10:30 AM64 °FPassing clouds.10 mph64%30.04 "HgN/A
10:00 AM63 °FPassing clouds.7 mph68%30.04 "HgN/A
9:30 AM61 °FSunny.7 mph77%30.04 "Hg10 mi
9:00 AM57 °FSunny.5 mph82%30.04 "Hg10 mi
8:30 AM55 °FPassing clouds.6 mph88%30.04 "HgN/A
8:00 AM52 °FSunny.1 mph94%30.01 "Hg10 mi
7:30 AM50 °FSunny.1 mph94%30.01 "Hg10 mi
7:00 AM46 °FClear.No wind100%30.01 "Hg10 mi
6:30 AM45 °FFog.No wind100%30.01 "Hg5 mi
6:00 AM46 °FFog.No wind93%30.01 "HgN/A
5:30 AM46 °FFog.No wind93%30.01 "HgN/A
5:00 AM46 °FClear.3 mph93%30.01 "Hg10 mi
4:30 AM46 °FClear.3 mph93%29.98 "Hg10 mi
4:00 AM48 °FClear.3 mph87%29.98 "Hg10 mi
3:30 AM48 °FClear.3 mph87%29.98 "Hg10 mi
3:00 AM48 °FClear.3 mph87%29.98 "Hg10 mi
2:30 AM48 °FClear.3 mph94%29.98 "Hg10 mi
2:00 AM48 °FClear.3 mph94%29.98 "Hg10 mi
1:30 AM50 °FClear.3 mph88%29.98 "Hg10 mi
1:00 AM52 °FClear.2 mph82%29.98 "Hg10 mi
Weather by CustomWeather, © 2014

See weather overviewHow to use our weather pages